Regional Weather Roundup
Issued by NWS Northern Indiana

Home | Current Version | Previous Version | Text Only | Print | Product List | Glossary Off
Versions: 1 2 3 4 5 6 7 8 9 10 11 12 13 14 15 16 17 18 19 20 21 22 23 24 25 26 27 28 29 30 31 32 33 34 35 36 37 38 39 40 41 42 43 44 45 46 47 48 49 50

000
ASUS43 KIWX 231400
RWRIWX

KIWX WEATHER ROUNDUP
NATIONAL WEATHER SERVICE NORTHERN INDIANA
1000 AM EDT SAT AUG 23 2014

NOTE: "FAIR" INDICATES FEW OR NO CLOUDS BELOW 12,000 FEET WITH NO
SIGNIFICANT WEATHER AND/OR OBSTRUCTIONS TO VISIBILITY.

* THESE STATIONS ARE NOT UNDER NWS QUALITY CONTROL. THEY ALSO MAY NOT
  REPORT WEATHER SUCH AS PRECIPITATION OR FOG.

INZ001>027-231500-
NORTHERN INDIANA

CITY           SKY/WX    TMP DP  RH WIND       PRES   REMARKS
GARY*          MOSUNNY   81  75  83 CALM      29.99S
VALPARAISO     MOSUNNY   79  74  84 SE3       30.01R
KNOX*          SUNNY     76  73  92 CALM      30.00R
SOUTH BEND     CLOUDY    75  73  93 SE5       30.02R FOG
GOSHEN         CLOUDY    77  72  84 SE8       30.01S HAZE
MONTICELLO*    SUNNY     76  74  92 CALM      29.99F
WARSAW*        CLOUDY    73  73 100 E5        30.02R FOG
ANGOLA*        CLOUDY    72  63  73 SE7       30.04R
FORT WAYNE     CLOUDY    73  72  96 E5        30.02S FOG
PERU/GRISSOM   SUNNY     77 N/A N/A VRB2      30.01S

$$
INZ028>050-231500-
CENTRAL INDIANA

CITY           SKY/WX    TMP DP  RH WIND       PRES   REMARKS
LAFAYETTE      MOSUNNY   78  72  81 E3        29.99S
KOKOMO*        MOSUNNY   75  73  94 E5        30.00S
MUNCIE*        PTSUNNY   79  73  82 CALM      30.01S
INDIANAPOLIS   CLOUDY    79  71  76 SE7       30.00S

$$
MIZ043>046-050>051-056>058-064>065-071>073-077>080-231500-
SOUTHWEST LOWER MICHIGAN

CITY           SKY/WX    TMP DP  RH WIND       PRES   REMARKS
BATTLE CREEK   MOSUNNY   75  67  76 E6        30.04R
BENTON HARBOR  CLOUDY    75  71  87 E7        30.01R FOG
COLDWATER*     CLOUDY    74  69  84 SE6       30.04R
HILLSDALE*     SUNNY     75  69  81 E3        30.05R
HOLLAND        SUNNY     76  69  79 E7        30.04R
GRAND RAPIDS   PTSUNNY   72  67  84 E10       30.04S
KALAMAZOO      PTSUNNY   76  69  79 VRB3      30.03S
STURGIS*         N/A     72  72 100 E6        30.03R FOG
THREE RIVERS*  CLOUDY    73  72  96 E5        30.03S FOG

$$
OHZ001>008-015>018-024>025-231500-
NORTHWEST OHIO

CITY           SKY/WX    TMP DP  RH WIND       PRES   REMARKS
DEFIANCE       MOSUNNY   76  68  76 VRB5      30.03S
FINDLAY        CLOUDY    72  70  93 E9        30.02S FOG
TOLEDO EXPRESS MOSUNNY   74  67  78 E5        30.03R
TOLEDO METCALF PTSUNNY   73  67  81 NE7       30.04S
LIMA           PTSUNNY   76  70  82 E5        30.03R HAZE

$$
&&


USA.gov is the U.S. government's official web portal to all federal, state and local government web resources and services.